Home > Time Zones > World Clock > Weather > Italy > Milan > Past weeks

Flag for Italy Weather past 2 weeks in Milan, Italy

Now
63 °F

Passing clouds.


Feels Like: 63 °F
Forecast: 47 / 65 °F
Wind: 18 mph from Northwest

Location: Milan / Linate

Current Time: Oct 22, 2014 at 3:15:03 PM

Latest Report: Oct 22, 2014 at 2:50 PM


Visibility: N/A

Pressure: 29.89 "Hg

Humidity: 17%

Dew point: 18 °F

Location of MilanLocation

Historic Weather in Milan — Graph

°F

Milan temperature yesterday

Maximum temperature yesterday: 73 °F (at 2:20 PM)
Minimum temperature yesterday: 63 °F (at 4:50 AM)
Average temperature yesterday: 68 °F

Past Weeks' High & Low Weather Summary

 TemperatureHumidityPressure
High77 °F (Oct 17, 4:20 PM)100% (Oct 7, 2:20 PM)30.30 "Hg (Oct 7, 2:20 PM)
Low55 °F (Oct 22, 7:50 AM)20% (Oct 22, 1:20 PM)29.62 "Hg (Oct 22, 12:20 AM)
Average65 °F89%30.00 "Hg
* Reported Oct 7 1:20 PM — Oct 22 1:20 PM, Milan, Weather by CustomWeather, © 2014

Note: Actual official high and low records may vary slightly from our data, if they occured in-between our weather recording intervals... More about our weather records

Advertising

Milan weather history for previous 24 hours

 ConditionsComfort  
Time TempWeatherWind HumidityBarometerVisibility
1:20 PM
Oct 22
63 °FPassing clouds.16 mph20%29.92 "HgN/A
12:50 PM61 °FPassing clouds.13 mph23%29.92 "HgN/A
12:20 PM61 °FPassing clouds.14 mph23%29.95 "HgN/A
11:50 AM61 °FPassing clouds.15 mph25%29.95 "HgN/A
11:20 AM61 °FPassing clouds.15 mph25%29.95 "HgN/A
10:50 AM59 °FPassing clouds.16 mph27%29.92 "HgN/A
10:20 AM59 °FPassing clouds.14 mph29%29.92 "HgN/A
9:50 AM59 °FPassing clouds.14 mph31%29.92 "HgN/A
9:20 AM57 °FPassing clouds.14 mph33%29.89 "HgN/A
8:50 AM57 °FPassing clouds.14 mph36%29.86 "HgN/A
8:20 AM57 °FPassing clouds.15 mph33%29.83 "HgN/A
7:50 AM55 °FPassing clouds.15 mph36%29.80 "HgN/A
7:20 AM57 °FPassing clouds.16 mph33%29.80 "HgN/A
6:50 AM57 °FPassing clouds.14 mph33%29.80 "HgN/A
6:20 AM57 °FPassing clouds.9 mph33%29.77 "HgN/A
5:50 AM59 °FPassing clouds.14 mph31%29.77 "HgN/A
5:20 AM59 °FPassing clouds.13 mph29%29.74 "HgN/A
4:50 AM61 °FPassing clouds.17 mph25%29.74 "HgN/A
4:20 AM61 °FPassing clouds.12 mph27%29.71 "HgN/A
3:50 AM63 °FPassing clouds.15 mph24%29.71 "HgN/A
3:20 AM64 °FPassing clouds.21 mph22%29.68 "HgN/A
2:50 AM64 °FPassing clouds.17 mph24%29.68 "HgN/A
2:20 AM66 °FPassing clouds.18 mph24%29.65 "HgN/A
1:50 AM68 °FPassing clouds.13 mph35%29.65 "HgN/A
1:20 AM68 °FPassing clouds.10 mph64%29.62 "HgN/A
12:50 AM66 °FPassing clouds.5 mph88%29.62 "HgN/A
12:20 AM68 °FPassing clouds.2 mph83%29.62 "HgN/A
11:50 PM
Oct 21
68 °FPassing clouds.2 mph88%29.65 "HgN/A
11:20 PM66 °FPassing clouds.1 mph94%29.65 "HgN/A
10:50 PM66 °FPassing clouds.No wind88%29.65 "HgN/A
10:20 PM66 °FPassing clouds.1 mph88%29.65 "HgN/A
9:50 PM66 °FPassing clouds.No wind88%29.68 "HgN/A
9:20 PM66 °FPassing clouds.2 mph88%29.68 "HgN/A
8:50 PM66 °FPassing clouds.3 mph88%29.71 "HgN/A
8:20 PM66 °FPassing clouds.2 mph88%29.74 "HgN/A
7:50 PM66 °FPassing clouds.3 mph88%29.74 "HgN/A
7:20 PM66 °FScattered clouds.2 mph88%29.74 "HgN/A
6:50 PM70 °FScattered clouds.2 mph78%29.77 "HgN/A
6:20 PM70 °FPassing clouds.3 mph78%29.77 "HgN/A
5:50 PM72 °FSunny.2 mph69%29.77 "Hg10 mi
5:20 PM73 °FPassing clouds.5 mph65%29.77 "HgN/A
4:50 PM73 °FPassing clouds.5 mph65%29.77 "HgN/A
4:20 PM73 °FScattered clouds.5 mph65%29.80 "HgN/A
3:50 PM73 °FScattered clouds.5 mph65%29.83 "HgN/A
3:20 PM73 °FPassing clouds.5 mph65%29.83 "HgN/A
Weather by CustomWeather, © 2014

See weather overviewHow to use our weather pages